TimePST,TemperatureF,Dew PointF,Humidity,Sea Level PressureIn,VisibilityMPH,Wind Direction,Wind SpeedMPH,Gust SpeedMPH,PrecipitationIn,Events,Conditions,WindDirDegrees,DateUTC
12:55 AM,42.1,36.0,79,30.00,10.0,NNE,4.6,-,N/A,,Partly Cloudy,20,2013-02-09 08:55:00
1:55 AM,39.0,35.1,86,29.99,10.0,NE,5.8,-,N/A,,Clear,50,2013-02-09 09:55:00
2:55 AM,37.9,34.0,86,29.99,10.0,NE,3.5,-,N/A,,Partly Cloudy,40,2013-02-09 10:55:00
3:20 AM,37.4,33.8,87,30.01,10.0,ESE,3.5,-,N/A,,Mostly Cloudy,110,2013-02-09 11:20:00
3:55 AM,36.0,33.1,89,29.99,10.0,NE,4.6,-,N/A,,Mostly Cloudy,50,2013-02-09 11:55:00
4:55 AM,37.0,34.0,89,30.00,10.0,NE,4.6,-,N/A,,Overcast,40,2013-02-09 12:55:00
5:51 AM,37.4,33.8,87,30.02,10.0,NE,4.6,-,N/A,,Scattered Clouds,50,2013-02-09 13:51:00
5:55 AM,37.0,34.0,89,30.00,10.0,NE,4.6,-,N/A,,Scattered Clouds,50,2013-02-09 13:55:00
6:55 AM,37.0,34.0,89,30.01,10.0,East,4.6,-,N/A,,Scattered Clouds,90,2013-02-09 14:55:00
7:03 AM,37.4,33.8,87,30.04,10.0,East,4.6,-,N/A,,Mostly Cloudy,90,2013-02-09 15:03:00
7:55 AM,41.0,37.9,89,30.04,10.0,East,3.5,-,N/A,,Mostly Cloudy,80,2013-02-09 15:55:00
8:55 AM,48.0,42.1,80,30.05,10.0,North,5.8,-,N/A,,Overcast,360,2013-02-09 16:55:00
9:55 AM,51.1,44.1,77,30.07,10.0,WNW,6.9,-,N/A,,Overcast,300,2013-02-09 17:55:00
10:55 AM,53.1,42.1,66,30.07,10.0,NW,13.8,18.4,N/A,,Scattered Clouds,320,2013-02-09 18:55:00
11:55 AM,53.1,39.0,59,30.06,10.0,NW,15.0,-,N/A,,Clear,320,2013-02-09 19:55:00
12:55 PM,54.0,37.9,55,30.05,10.0,NW,16.1,23.0,N/A,,Clear,310,2013-02-09 20:55:00
1:55 PM,54.0,39.0,57,30.04,10.0,NW,16.1,-,N/A,,Clear,310,2013-02-09 21:55:00
2:55 PM,53.1,39.9,61,30.04,10.0,NW,15.0,20.7,N/A,,Clear,310,2013-02-09 22:55:00
3:55 PM,53.1,41.0,64,30.04,10.0,NW,15.0,-,N/A,,Scattered Clouds,310,2013-02-09 23:55:00
4:55 PM,51.1,41.0,68,30.04,10.0,NW,12.7,-,N/A,,Partly Cloudy,310,2013-02-10 00:55:00
5:55 PM,46.9,39.9,77,30.05,10.0,NW,5.8,-,N/A,,Clear,320,2013-02-10 01:55:00
6:55 PM,44.1,37.9,79,30.06,10.0,NW,6.9,-,N/A,,Clear,310,2013-02-10 02:55:00
7:55 PM,43.0,39.0,86,30.07,10.0,NNW,10.4,-,N/A,,Clear,330,2013-02-10 03:55:00
8:55 PM,43.0,39.0,86,30.07,10.0,North,4.6,-,N/A,,Clear,10,2013-02-10 04:55:00
9:55 PM,39.9,36.0,86,30.09,10.0,Calm,Calm,-,N/A,,Partly Cloudy,0,2013-02-10 05:55:00
10:13 PM,42.8,37.4,81,30.11,10.0,Calm,Calm,-,N/A,,Mostly Cloudy,0,2013-02-10 06:13:00
10:55 PM,43.0,39.9,89,30.10,10.0,Calm,Calm,-,N/A,,Overcast,0,2013-02-10 06:55:00
11:55 PM,41.0,37.9,89,30.10,10.0,ESE,3.5,-,N/A,,Mostly Cloudy,120,2013-02-10 07:55:00